Regional Weather Roundup
Issued by NWS State College, PA

Home | Current Version | Previous Version | Text Only | Print | Product List | Glossary Off
Versions: 1 2 3 4 5 6 7 8 9 10 11 12 13 14 15 16 17 18 19 20 21 22 23 24 25 26 27 28 29 30 31 32 33 34 35 36 37 38 39 40 41 42 43 44 45 46 47 48 49 50

000
ASUS41 KCTP 280703
RWRCTP

REGIONAL WEATHER ROUNDUP
NATIONAL WEATHER SERVICE STATE COLLEGE PA
200 AM EST SUN DEC 28 2014

Note: "fair" indicates few or no clouds below 12,000 feet with no
significant weather and/or obstructions to visibility.

* = STATION THAT DOES NOT REPORT PRECIPITATION /E.G. RAIN...SNOW...ETC/
    THUNDER OR FOG.

PAZ002>004-007>009-013>016-020>023-029>032-280800-
WESTERN PENNSYLVANIA

CITY           SKY/WX    TMP DP  RH WIND       PRES   REMARKS
ERIE           LGT RAIN  42  39  89 W16G25    29.95R
MEADVILLE      RAIN      45  42  89 SW8       29.92F FOG
FRANKLIN*      CLOUDY    43  39  87 SW8       29.95F
NEW CASTLE       N/A     45  45 100 SW3       29.97F FOG
BEAVER COUNTY  NOT AVBL
BUTLER*        CLOUDY    45  43  93 SW7       29.98F
PITTSBURGH INT LGT RAIN  46  43  89 W9        29.96F
PITTSBURGH     CLOUDY    45  40  82 SW9       29.97F
INDIANA*       MOCLDY    43  43 100 NW6       30.01S FOG
LATROBE        CLOUDY    50  37  62 W9        29.99R
WASHINGTON CO* NOT AVBL
$$

PAZ004>006-010>012-017>019-024>028-033>037-041-042-045-046-049>053-280800-
CENTRAL PENNSYLVANIA

CITY           SKY/WX    TMP DP  RH WIND       PRES   REMARKS
BRADFORD       LGT RAIN  42  38  85 SW7       29.91S FOG
DUBOIS         LGT RAIN  42  41  96 SW14      29.93F FOG
CLEARFIELD     LGT RAIN  43  40  89 SW7       29.95R
JOHNSTOWN      CLOUDY    50  23  34 W10       29.94F
ALTOONA        CLOUDY    49  29  46 NW5       29.95R
STATE COLLEGE  DRIZZLE   47  34  61 W3        29.93R
WILLIAMSPORT   LGT RAIN  45  35  68 W8        29.93S
SELINSGROVE    CLOUDY    49  31  49 CALM      29.94F
FT INDIANTOWN  MOCLDY    38  34  87 NW2       29.97F
CAPITAL CITY   CLOUDY    43  33  68 CALM      29.97F
HARRISBURG     MOCLDY    41  36  82 SE5       29.97F
YORK           CLOUDY    45  34  65 CALM      29.97F
$$

PAZ038>040-043-044-047-048-054-055-060>062-067>071-280800-
EASTERN PENNSYLVANIA

CITY           SKY/WX    TMP DP  RH WIND       PRES   REMARKS
SCRANTON       CLOUDY    49  27  42 SW8G16    29.92F
MOUNT POCONO   CLOUDY    44  28  53 SW7       29.92F
ALLENTOWN      MOCLDY    36  31  82 N5        29.97F
QUAKERTOWN*    PTSUNNY   36  32  87 CALM      29.98F
READING        CLOUDY    42  34  73 CALM      29.98F
LANCASTER      MOCLDY    40  34  79 NE3       29.98F
COATESVILLE    PTSUNNY   41  37  87 CALM      29.99F
POTTSTOWN      MOCLDY    40  33  76 CALM      29.99F
BLUE BELL      PTCLDY    43  37  81 CALM      29.98F
DOYLESTOWN     PTCLDY    39  35  86 S3        29.97F
WILLOW GROVE   NOT AVBL
NORTH PHILA    PTCLDY    41  34  76 CALM      30.01F
PHILADELPHIA   MOCLDY    41  36  82 CALM      30.01F
$$


USA.gov is the U.S. government's official web portal to all federal, state and local government web resources and services.